Regional Weather Roundup
Issued by NWS

Home | Current Version | Previous Version | Graphics & Text | Print | Product List | Glossary On
Versions: 1 2 3 4 5 6 7 8 9 10 11 12 13 14 15 16 17 18 19 20 21 22 23 24 25 26 27 28 29 30 31 32 33 34 35 36 37 38 39 40 41 42 43 44 45 46 47 48 49 50
000
ASUS45 KTFX 240310
RWRMT
MONTANA REGIONAL WEATHER ROUNDUP
NATIONAL WEATHER SERVICE GREAT FALLS MT
900 PM MDT MON MAY 23 2016

NOTE: "FAIR" INDICATES FEW OR NO CLOUDS BELOW 12000 FEET WITH NO
SIGNIFICANT WEATHER AND/OR OBSTRUCTIONS TO VISIBILITY.

MTZ001>007-043-240400-
WEST OF THE DIVIDE

CITY           SKY/WX    TMP DP  RH WIND       PRES   REMARKS
KALISPELL      LGT RAIN  45  45 100 SE9       29.85R
MISSOULA       LGT RAIN  46  42  86 CALM      29.91R
BUTTE          LGT RAIN  40  35  83 N6        29.90S
MULLAN PASS    LGT RAIN  34  33  96 SW5       29.86S VSB 1/4
ANACONDA         N/A     41  36  81 W5        29.90R
DEER LODGE       N/A     43  39  87 W3        29.91R
EUREKA           N/A     48  43  81 SE9       29.84R
HAMILTON         N/A     46  43  87 CALM      29.89S
LIBBY            N/A     46  45  93 CALM      29.85S
PLAINS           N/A     49  43  80 CALM      29.89S
$$

MTZ008-052>055-240400-
SOUTHWEST MONTANA

CITY           SKY/WX    TMP DP  RH WIND       PRES   REMARKS
BOZEMAN        LGT RAIN  43  40  89 SE6       29.91R
DILLON         CLOUDY    44  35  70 NE9       29.87R
ENNIS          CLOUDY    45  36  70 N8        29.93R
TWIN BRIDGES     N/A     45  35  67 NW2       29.88S
$$

MTZ009-010-012-014-046-048-049-054-240400-
EAST SLOPES AND CENTRAL MONTANA

CITY           SKY/WX    TMP DP  RH WIND       PRES   REMARKS
CUT BANK       LGT RAIN  42  40  92 NW9       29.83R
GREAT FALLS    LGT RAIN  44  42  93 CALM      29.85R
MALMSTROM AFB  LGT RAIN  44  42  93 SW5       29.87R
HELENA         CLOUDY    46  37  71 W7        29.87R
CHOTEAU          N/A     43  41  93 NE9       29.85R FOG
CONRAD           N/A     44  44 100 W7        29.88R
$$

MTZ011-013-016-021-045-047-050-051-240400-
NORTH CENTRAL MONTANA

CITY           SKY/WX    TMP DP  RH WIND       PRES   REMARKS
HAVRE          CLOUDY    50  42  74 W15       29.78R
LEWISTOWN      CLOUDY    46  39  76 W6        29.82R
N BAR RANCH      N/A     43  39  87 W6        29.84R
CHINOOK          N/A     52  43  71 W13       29.77R
$$

MTZ017>020-022>027-061-062-240400-
NORTHEAST MONTANA

CITY           SKY/WX    TMP DP  RH WIND       PRES   REMARKS
GLASGOW        CLEAR     52  41  66 W9        29.72R
JORDAN           N/A     53  41  63 W13       29.77R
SIDNEY         CLEAR     55  40  56 W9        29.74R
WOLF POINT     MOCLDY    56  43  61 SW8       29.73R
PLENTYWOOD       N/A     55  39  54 W9        29.71R
POPLAR           N/A     57  43  58 SW6       29.74R
SCOBEY           N/A     54  34  46 W10       29.71R
$$

MTZ028>42-056>058-240400-
SOUTHCENTRAL AND SOUTHEAST MONTANA

CITY           SKY/WX    TMP DP  RH WIND       PRES   REMARKS
BAKER          CLEAR     55  34  45 NW9       29.78R
BILLINGS       CLOUDY    53  36  52 NW13      29.85R
LIVINGSTON     CLOUDY    46  35  65 W10       29.86S
MILES CITY     CLOUDY    57  40  52 NW7       29.77R
FORSYTH          N/A     55  41  58 NW9       29.79R
$$

REGIONAL REPORTS...DAKOTAS

CITY           SKY/WX    TMP DP  RH WIND       PRES   REMARKS
WILLISTON      CLEAR     59  37  44 W8        29.72R
MINOT          MOCLDY    64  43  46 VRB3      29.71R
DICKINSON      CLEAR     51  34  52 NW8       29.73R
BEACH            N/A     52  36  54 W8        29.79R
CROSBY           N/A     55  39  54 SW10      29.72R
WATFORD CITY     N/A     59  37  44 NW9       29.74R
BISMARCK       CLOUDY    67  39  35 W17G24    29.74R
GRAND FORKS    PTCLDY    65  52  62 N8        29.68R
FARGO          PTCLDY    72  45  37 E10       29.67S
BUFFALO SD       N/A     57  36  45 N13       29.70R
RAPID CITY     CLEAR     58  29  33 W3        29.75R
$$

REGIONAL REPORTS...WYOMING/IDAHO/WASHINGTON

CITY           SKY/WX    TMP DP  RH WIND       PRES   REMARKS
GILLETTE       CLEAR     44  32  62 W5        29.80S
SHERIDAN       MOCLDY    49  39  68 W3        29.84R
BUFFALO WY     CLEAR     52  36  54 NW10      29.86R
CODY           CLOUDY    54  28  37 NE9       29.84R
YELLOWSTONE LA   N/A     35  27  72 CALM      29.94S
IDAHO FALLS    CLEAR     55  31  39 S12       29.85R
SALMON         CLOUDY    52  36  54 N7        29.83R
BOISE          PTCLDY    64  32  30 NW7       29.80R
SPOKANE        LGT RAIN  54  46  74 SE6       29.84R
$$

REGIONAL REPORTS...ALBERTA

CITY           SKY/WX    TMP DP  RH WIND       PRES   REMARKS
EDMONTON       CLOUDY    48  43  81 N9        29.81R
CALGARY        CLOUDY    46  39  76 N10       29.83R
LETHBRIDGE     MOCLDY    48  41  76 W15       29.81R
MEDICINE HAT   CLOUDY    50  45  81 W13       29.75R
WATERTON GATE    N/A     37  36  93 SW2         N/A
CARDSTON         N/A     41  37  87 W9          N/A
MILK RIVER       N/A     46  39  76 NW10        N/A
ONEFOUR          N/A     46  41  81 W14         N/A
$$

REGIONAL REPORTS...SASKATCHEWAN

CITY           SKY/WX    TMP DP  RH WIND       PRES   REMARKS
SWIFT CURRENT  CLOUDY    48  46  93 W12       29.64R
REGINA         MOCLDY    52  45  76 S8        29.63R
SASKATOON      CLOUDY    55  43  62 NE6       29.65R
VAL MARIE        N/A     52  41  66 W13G18      N/A
ROCKGLEN         N/A     48  43  81 SW13        N/A
ASSINIBOIA       N/A     50  46  87 N6          N/A
$$



USA.gov is the U.S. government's official web portal to all federal, state and local government web resources and services.